Change the Weather History Date:

Monday, February 11, 2013

  Actual Average (KHGR) Record (KHGR)
Temperature  
Mean Temperature 43 °F 33 °F  
Max Temperature 53 °F 41 °F 68 °F (2009)
Min Temperature 33 °F 25 °F 9 °F (2008)
Degree Days  
Heating Degree Days 22 32  
Month to date heating degree days 360  
Since 1 July heating degree days 3384  
Cooling Degree Days 0 0  
Month to date cooling degree days 0  
Year to date cooling degree days 0  
Moisture  
Dew Point 37 °F    
Average Humidity 86    
Maximum Humidity 100    
Minimum Humidity 41    
Precipitation  
Precipitation 0.29 in 0.09 in 0.13 in (2013)
Month to date precipitation 1.00  
Year to date precipitation 3.68  
Sea Level Pressure  
Sea Level Pressure 29.96 in    
Wind  
Wind Speed 5 mph (SW)    
Max Wind Speed 25 mph    
Max Gust Speed 34 mph    
Visibility 7 miles    
Events Rain    
T = Trace of Precipitation, MM = Missing Value Source: NWS Daily Summary

Daily Weather History Graph

Daily Weather History Graph

Search for Another Location

Airport or City:

Trip Planner

Search our weather history database for the weather conditions in past years. The results will help you decide how hot, cold, wet, or windy it might be!

Date:

Astronomy

Feb. 11, 2013 Rise Set
Actual Time 7:06 AM EST 5:41 PM EST
Civil Twilight 6:38 AM EST 6:09 PM EST
Nautical Twilight 6:06 AM EST 6:41 PM EST
Astronomical Twilight 5:35 AM EST 7:12 PM EST
Moon 7:30 AM EST (2/11) 7:35 PM EST (2/11)
Length of Visible Light 11h 31m
Length of Day
10h 35m
Waxing Crescent, 3% of the Moon is Illuminated
Feb 11
Waxing Crescent
Feb 17
First Quarter
Feb 25
Full
Mar 4
Last Quarter
Mar 11
New

Hourly Weather History & Observations

Time (EST) Temp. Windchill Dew Point Humidity Pressure Visibility Wind Dir Wind Speed Gust Speed Precip Events Conditions
12:15 AM 35.6 °F 30.7 °F 24.8 °F 65% 30.25 in 10.0 mi SE 5.8 mph - N/A   Scattered Clouds
12:35 AM 35.6 °F 32.8 °F 24.8 °F 65% 30.24 in 10.0 mi SE 3.5 mph - N/A   Overcast
12:55 AM 35.6 °F - 26.6 °F 70% 30.24 in 10.0 mi Calm Calm - N/A   Overcast
1:15 AM 35.6 °F - 26.6 °F 70% 30.23 in 10.0 mi Calm Calm - N/A Rain Light Rain
1:35 AM 35.6 °F 31.7 °F 30.2 °F 81% 30.22 in 10.0 mi South 4.6 mph - N/A Rain Rain
1:55 AM 33.8 °F 29.6 °F 32.0 °F 93% 30.21 in 3.0 mi South 4.6 mph - 0.01 in Rain Rain
2:20 AM 33.8 °F - 33.8 °F 100% 30.20 in 2.0 mi Calm Calm - 0.03 in Rain Light Rain
2:40 AM 33.8 °F - 33.8 °F 100% 30.18 in 1.8 mi Calm Calm - 0.05 in Rain Rain
3:00 AM 33.8 °F - 33.8 °F 100% 30.17 in 3.0 mi Calm Calm - 0.01 in Rain Light Rain
3:20 AM 33.8 °F - 33.8 °F 100% 30.16 in 1.8 mi Calm Calm - 0.05 in Rain Light Rain
3:40 AM 33.8 °F - 33.8 °F 100% 30.14 in 1.8 mi Calm Calm - 0.07 in Rain Heavy Rain
4:00 AM 33.8 °F - 33.8 °F 100% 30.13 in 1.8 mi Calm Calm - N/A Rain Rain
4:20 AM 33.8 °F - 33.8 °F 100% 30.11 in 1.8 mi Calm Calm - 0.04 in Rain Rain
4:40 AM 33.8 °F - 33.8 °F 100% 30.11 in 1.2 mi Calm Calm - 0.09 in Rain Light Rain
5:00 AM 35.6 °F 32.8 °F 35.6 °F 100% 30.10 in 4.0 mi SSE 3.5 mph - N/A Rain Light Rain
5:20 AM 35.6 °F 32.8 °F 35.6 °F 100% 30.09 in 1.8 mi SSE 3.5 mph - 0.07 in Rain Light Rain
5:40 AM 35.6 °F 32.8 °F 35.6 °F 100% 30.07 in 10.0 mi SSE 3.5 mph - 0.07 in   Overcast
6:45 AM 37.4 °F 33.8 °F 37.4 °F 100% 30.06 in 5.0 mi SSW 4.6 mph - N/A   Overcast
7:47 AM 37.4 °F 32.1 °F 37.4 °F 100% 30.03 in 5.0 mi South 6.9 mph - N/A   Overcast
9:47 AM 41.0 °F 35.2 °F 41.0 °F 100% 29.99 in 4.0 mi SW 9.2 mph - N/A   Overcast
9:59 AM 39.2 °F 33.6 °F 39.2 °F 100% 30.01 in 5.0 mi SSW 8.1 mph - N/A   Overcast
10:47 AM 42.8 °F 38.0 °F 42.8 °F 100% 29.97 in 4.0 mi SW 8.1 mph - N/A   Overcast
11:45 AM 44.6 °F 39.2 °F 44.6 °F 100% 29.92 in 5.0 mi SW 10.4 mph - N/A   Overcast
12:50 PM 44.6 °F 39.2 °F 44.6 °F 100% 29.85 in 4.0 mi SW 10.4 mph - N/A   Overcast
1:45 PM 48.2 °F - 46.4 °F 93% 29.82 in 5.0 mi SSW 11.5 mph - N/A   Overcast
2:50 PM 51.8 °F - 48.2 °F 88% 29.77 in 10.0 mi SSW 9.2 mph - N/A   Overcast
3:50 PM 53.6 °F - 51.8 °F 94% 29.75 in 10.0 mi SSW 8.1 mph - N/A   Scattered Clouds
4:50 PM 53.6 °F - 51.8 °F 94% 29.73 in 10.0 mi SW 6.9 mph - N/A   Clear
5:50 PM 51.8 °F - 51.8 °F 100% 29.71 in 10.0 mi SW 9.2 mph - N/A   Clear
6:50 PM 51.8 °F - 50.0 °F 94% 29.72 in 10.0 mi SSW 9.2 mph - N/A   Clear
7:50 PM 46.4 °F 43.5 °F 46.4 °F 100% 29.73 in 10.0 mi WSW 5.8 mph - N/A   Clear
8:00 PM 44.6 °F 42.2 °F 44.6 °F 100% 29.73 in 10.0 mi WSW 4.6 mph - N/A   Clear
8:20 PM 42.8 °F 39.3 °F 42.8 °F 100% 29.74 in 10.0 mi SW 5.8 mph - N/A   Clear
8:40 PM 41.0 °F 38.0 °F 41.0 °F 100% 29.74 in 10.0 mi SSW 4.6 mph - N/A   Clear
9:00 PM 41.0 °F 37.1 °F 41.0 °F 100% 29.75 in 7.0 mi WSW 5.8 mph - N/A   Clear
9:20 PM 51.8 °F - 32.0 °F 47% 29.76 in 10.0 mi WNW 13.8 mph - N/A   Clear
9:40 PM 53.6 °F - 30.2 °F 41% 29.77 in 10.0 mi West 20.7 mph 34.5 mph N/A   Clear
10:00 PM 53.6 °F - 30.2 °F 41% 29.79 in 10.0 mi NW 25.3 mph 32.2 mph N/A   Clear
10:20 PM 51.8 °F - 32.0 °F 47% 29.81 in 10.0 mi WNW 19.6 mph 25.3 mph N/A   Clear
10:40 PM 50.0 °F - 32.0 °F 50% 29.82 in 10.0 mi WNW 16.1 mph 24.2 mph N/A   Clear
11:00 PM 48.2 °F - 33.8 °F 58% 29.83 in 10.0 mi WNW 15.0 mph 23.0 mph N/A   Clear
11:20 PM 46.4 °F 39.8 °F 32.0 °F 57% 29.83 in 10.0 mi NW 16.1 mph 23.0 mph N/A   Clear
11:40 PM 46.4 °F 40.1 °F 32.0 °F 57% 29.84 in 10.0 mi WNW 15.0 mph - N/A   Clear